Tracking 19795 objects as of 18-Jul-2019
HD Live streaming from Space Station
objects crossing your sky now

SL-8 R/B

Track SL-8 R/B now!
10-day predictions


NORAD ID: 13003
Int'l Code: 1981-120G
Perigee: 1,660.3 km
Apogee: 1,792.2 km
Inclination: 83.0 °
Period: 120.9 minutes
Semi major axis: 8097 km
RCS: 6.3263 m2 (large)
Launch date: December 17, 1981
Source: Commonwealth of Independent States (former USSR) (CIS)
Launch site: PLESETSK MISSILE AND SPACE COMPLEX (PKMTR)

Note: This is a ROCKET BODY
aabbcc
Your satellite tracking list
Your tracking list is empty




NASA's NSSDC Master Catalog

Two Line Element Set (TLE):
1 13003U 81120G   19198.53976899 -.00000064 +00000-0 -99868-3 0  9998
2 13003 082.9526 209.0785 0081447 200.3506 236.2241 11.91501003634501
Source of the keplerian elements: AFSPC